Regional Weather Roundup
Issued by NWS Upton, NY

Current Version | Previous Version | Graphics & Text | Print | Product List | Glossary On
Versions: 1 2 3 4 5 6 7 8 9 10 11 12 13 14 15 16 17 18 19 20 21 22 23 24 25 26 27 28 29 30 31 32 33 34 35 36 37 38 39 40 41 42 43 44 45 46 47 48 49 50
000
ASUS41 KOKX 072114
RWROKX

Regional Weather Roundup
National Weather Service New York NY
400 PM EST SUN MAR 07 2021

Note: "FAIR" indicates few or no clouds below 12,000 feet with no
significant weather and/or obstructions to visibility.

NYZ071-072-176-178-NJZ106-104-072200-
New York City Metro Area

CITY           SKY/WX    TMP DP  RH WIND       PRES   REMARKS
Central Park   SUNNY     40  13  33 MISG      30.30S
Bronx Lehman C   N/A     39  16  38 NW8         N/A  WCI  34
LaGuardia Arpt SUNNY     41  13  31 NW6       30.28S
Queens College   N/A     39  16  38 N13         N/A  WCI  32
Kennedy Intl   SUNNY     42  14  32 NW15      30.29S
Breezy Point     N/A     41 N/A N/A NW7G13      N/A
Brooklyn Coll    N/A     41  16  36 W12         N/A
Staten Island    N/A     41  16  36 NW8         N/A
Newark/Liberty MOSUNNY   42  13  30 NW10G20   30.28S
Teterboro      SUNNY     41  16  36 N6G18     30.28R
$$

NYZ177-179-078>081-072200-
Long Island New York

CITY           SKY/WX    TMP DP  RH WIND       PRES   REMARKS
Jones Beach      N/A     39 N/A N/A NW16        N/A  WCI  30
Wantagh          N/A     39  16  38 NW10        N/A  WCI  32
Hempstead      NOT AVBL
Matinecock Pt    N/A     39 N/A N/A NW15        N/A  WCI  31
Farmingdale    SUNNY     40  14  34 NW13G20   30.28S WCI  32
MacArthur/ISP  SUNNY     39  14  36 NW14      30.27S WCI  31
Shirley        SUNNY     39  12  33 NW12G20   30.28S WCI  32
Mt Sinai Harb    N/A     37 N/A N/A W5G10       N/A  WCI  34
Westhampton    SUNNY     37  11  34 NW12      30.28S WCI  29
East Hampton   FAIR      36  12  38 NW8       30.26S WCI  29
Southold         N/A     36  19  51 W7          N/A  WCI  30
Montauk          N/A     37  15  40 W8        30.27S WCI  31
$$

NYZ052-065-067-072200-
Hudson Valley

CITY           SKY/WX    TMP DP  RH WIND       PRES   REMARKS
White Plains   SUNNY     38  12  34 NW15      30.26R WCI  29
Larchmont Harb   N/A     37 N/A N/A NW12        N/A  WCI  30
Croton On Huds   N/A     39 N/A N/A NW10        N/A  WCI  32
Somers           N/A     36  14  41 W9          N/A  WCI  29
Brewster         N/A     36  14  41 NW10        N/A  WCI  28
Newburgh       SUNNY     39  12  33 NW17      30.26S WCI  30
Montgomery     SUNNY     37  13  37 NW12      30.26S WCI  29
Otisville        N/A     34  12  40 W7          N/A  WCI  28
Warwick          N/A     36  16  44 W12         N/A  WCI  27
Suffern          N/A     36  16  44 NW12        N/A  WCI  27
Poughkeepsie   SUNNY     39  11  31 N6        30.27S WCI  35
Albany         SUNNY     30   9  41 W13       30.32R WCI  20
$$

NJZ001-105-106-008-010-013-015-019>022-104-072200-
New Jersey

CITY           SKY/WX    TMP DP  RH WIND       PRES   REMARKS
Newark/Liberty MOSUNNY   42  13  30 NW10G20   30.28S
Teterboro      SUNNY     41  16  36 N6G18     30.28R
Caldwell       SUNNY     42  13  30 NW9       30.30R
Somerville     SUNNY     42  13  30 W10       30.28S
Linden         FAIR      42  13  31 NW10G16   30.29S
Perth Amboy    NOT AVBL
Sussex         SUNNY     37  13  37 NW7       30.29R WCI  32
Andover          N/A     39  14  36 NW8       30.28R WCI  33
Trenton        SUNNY     41  13  31 VRB7      30.30S
Millville      SUNNY     43  13  29 NW14G21   30.30S
Atlantic City  SUNNY     44  12  27 NW14G20   30.28F
Wrightstown    SUNNY     42  12  29 N13G20    30.29S
Toms River     SUNNY     41  12  30 NW9       30.30S
Belmar         SUNNY     41  13  31 W12       30.29F
$$

PAZ047>061-062-071-072200-
Eastern Pennsylvania

CITY           SKY/WX    TMP DP  RH WIND       PRES   REMARKS
Philadelphia   SUNNY     43  11  27 W13       30.31R
Allentown      SUNNY     39  14  36 W12       30.30R WCI  32
Scranton       MOSUNNY   36  13  38 N7G17     30.30R WCI  30
$$

CTZ002-004>006-009-010-012-RIZ004-006-007-MAZ004-011-015-072200-
Southern New England

 In CT

CITY           SKY/WX    TMP DP  RH WIND       PRES   REMARKS
Bradley Intl   SUNNY     38   8  29 NW9       30.26R WCI  31
Hartford       SUNNY     39   8  27 NW7       30.27S WCI  34
Danbury        SUNNY     39  11  31 NW8       30.27R WCI  33
Wtrbury/Oxford SUNNY     35  12  38 NW12      30.25R WCI  27
Norwalk Harbor   N/A     36 N/A N/A NW8G15      N/A  WCI  29
Bridgeport     SUNNY     41  12  30 NW12      30.27S
Meriden        SUNNY     37   9  31 W9        30.27R WCI  30
New Haven      SUNNY     40  14  34 NW8       30.26S WCI  34
Chester        FAIR      39   7  26 N10G18    30.24S WCI  32
Groton         SUNNY     38   9  30 NW10G22   30.25S WCI  31
Willimantic    SUNNY     37   9  31 N9        30.25S WCI  30

 In RI

CITY           SKY/WX    TMP DP  RH WIND       PRES   REMARKS
Providence     NOT AVBL
Block Island   SUNNY     35  10  35 NW10      30.25S WCI  27
Westerly       SUNNY     35   8  32 N8        30.25S WCI  29

In MA

CITY           SKY/WX    TMP DP  RH WIND       PRES   REMARKS
Boston         MOSUNNY   38   7  27 NW9       30.25S WCI  31
Worcester      SUNNY     33   7  33 NW10      30.20R WCI  25
Westfield      SUNNY     36  10  34 W14       30.26R WCI  27
Provincetown   SUNNY     30  16  56 N9        30.26S WCI  22
Nantucket      SUNNY     30  16  56 N6        30.27R WCI  24
$$

ANZ330-335-338-340-345-350-353-355-072200-
Coastal Marine Observations


STATION/POSITION TIME  SKY/WX   TEMP    WIND        PRES    VSBY  WAVE
                                AIR SEA DIR/SP/G                  HT/PER
                 (UTC)          (F)     (DEG/KT/KT) (MB)    (MI)  (FT/S)
NY Harb Entrance 2050               42  280/ 10/ 12 1025.1          1
20 S Fire Island 2050               41  300/ 10/ 14 1025.2          2/ 4
Great South Bay  NOT AVBL
23 SSW Montauk P 2050            34 41  310/ 12/ 17 1025.4          2/ 3
15 E Barnegat Li 2056               41                N/A           1/ 4
Hudson Canyon    NOT AVBL
Kings Point      2024            37      20/  7/ 10 1026.3
Execution Rocks  2100            40     310/  8/ 14   N/A
Western LI Sound NOT AVBL
Central LI Sound 2000            33 36  230/ 12/ 16   N/A           1/ 2
Robbins Reef     2030            39     320/ 11/ 16 1025.4
$$


>>>>>>>>>>>>>>>>>>>>>>>>>>>> KEY <<<<<<<<<<<<<<<<<<<<<<<<<<<
>                                                          <
>     SKY/WX - Sky Condition/Present Weather               <
>     TMP    - Temperature in Fahrenheit                   <
>     DP     - Dew Point in Fahrenheit                     <
>     RH     - Relative Humidity in Percent                <
>     WIND   - Direction (from) and Speed in MPH           <
>     PRES   - Mean Sea Level Pressure (inches of Hg)      <
>     WCI    - Wind Chill Index                            <
>     VSB    - Visibility in Miles                         <
>     HX     - Heat Index                                  <
>     TC     - Temperature in Celsius                      <
>     VRB    - Variable Wind Direction                     <
>                                                          <
>>>>>>>>>>>>>>>>>>>>>>>>>>>> KEY <<<<<<<<<<<<<<<<<<<<<<<<<<<



USA.gov is the U.S. government's official web portal to all federal, state and local government web resources and services.